{"data":{"norad_id":61726,"epoch":"2026-09-21T17:10:00.007104Z","epoch_age_seconds":83848,"freshness":"FRESH","line1":"1 61726U 24196V   26264.71527786  .00001384  00000+0  52086-4 0  9997","line2":"2 61726  53.1599 268.3635 0001309  87.3188 272.7964 15.34400781107207","mean_motion":15.34400781,"eccentricity":0.0001309,"inclination_deg":53.1599,"raan_deg":268.3635,"arg_perigee_deg":87.3188,"mean_anomaly_deg":272.7964,"bstar":5.2086e-5,"rev_number":10720,"period_min":93.847710313437,"perigee_km":461.80545322791,"apogee_km":463.59638459509,"semimajor_km":6840.8379189115,"source":"CELESTRAK","updated_at":"2026-09-22T09:00:49.438677Z"}}